COSMOS 2251 DEB, 36437

Orbit data source: Space-Track

COSMOS 2251 DEB, 36437 is space debris in LEO originally from a launch on Wed, 16 Jun 1993 UTC launched from the Plesetsk Missile And Space Complex (PKMTR). The debris from Iridium 33, an American commercial communications satellite, has been tracked extensively since its accidental collision with the defunct Russian satellite Cosmos 2251 in 2009. This event, occurring at high speed in low Earth orbit (LEO), generated thousands of pieces of space debris, significantly increasing the risk of further collisions. The Iridium 33 debris cloud has impacted space traffic management and orbital debris mitigation strategies, making it a subject of ongoing study in space situational awareness.

Loading next visibility...
Identifier
36437, 1993-036BAL
Orbit
LEO
Country
Flag of CISCIS
Related business
Manufacturer
Unknown
Mission
Spacecraft
Bus & Motor
Unknown
Mass
Unknown
Launch date (UTC)
1993-06-16 (32 years ago)
Launch vehicle
Unknown
Launch site
Plesetsk Missile And Space Complex (PKMTR)
Object type
Payload
Rocket body
Debris
Shape & HBR
Unknown shape, 0.1 m
Radar Cross Section
Small (<0.1 m²)

Expand to show TLE details & history
Last TLE update: 3 days ago

TLE from 3 days ago
0 COSMOS 2251 DEB
1 36437U 93036BAL 25293.25685060  .00013966  00000-0  23589-2 0  9991
2 36437  73.9412 138.2872 0019778  15.8018 344.3764 14.69311013652651
Epoch: 2025-10-20T06:09Z
TLE epoch observation values (Epoch: 2025-10-20T06:09:51.891Z)
Latitude
-0.00011°
Longitude
16.85919°
Altitude
652.502 km
Speed
7.539 km/s
True Right ascension
09h 13m 08s
True Declination
0° 00' 00"
Sunlit
Object was in daylight at epoch
Visualization orbit readout
Latitude
Unknown
Longitude
Unknown
Altitude
Unknown
Speed
Unknown
Apparent Right ascension
Unknown
Apparent Declination
Unknown
Sunlit
N/A
Visualization observer readout
Local Sidereal Time
10:46:07
Azimuth
Unknown
Elevation
Unknown
Doppler factor
Unknown
Orbital elements
Apogee altitude
674.786 km
Perigee altitude
646.942 km
Semi-major axis
7,039.001 km
Eccentricity
0.00198
Inclination
73.9412°
RAAN
138.2872°
Arg. of periapsis
15.8018°
True anomaly
344.31522°
Mean anomaly
344.3764°
Eccentric anomaly
344.34582°
Mean motion
3.67516 °/min
Orbital period
97.95 mins
BSTAR
0.0023589
Loading maneuver chart data...
Computing Atmospheric mass density...

Documentation

Showing up to 5 results
|